Luverne, MN

5:33 PM CDT on May 22, 2017 (GMT -0500)
Luverne

Weather History for KLYV - January, 2013

Change the Weather History Date:

Tuesday, January 22, 2013

  Actual Average (KPQN) Record (KPQN)
Temperature  
Mean Temperature 8 °F -  
Max Temperature 15 °F 21 °F 51 °F (2002)
Min Temperature 0 °F 6 °F -11 °F (2008)
Degree Days  
Heating Degree Days 58    
Moisture  
Dew Point 1 °F    
Average Humidity 70    
Maximum Humidity 86    
Minimum Humidity 57    
Precipitation  
Precipitation 0.00 in - - ()
Sea Level Pressure  
Sea Level Pressure 30.26 in    
Wind  
Wind Speed 4 mph (SW)    
Max Wind Speed 14 mph    
Max Gust Speed -    
Visibility 10 miles    
Events Snow    
Averages and records for this station are not official NWS values.
T = Trace of Precipitation, MM = Missing Value Source: NWS Daily Summary

Daily Weather History Graph

Daily Weather History Graph

Search for Another Location

Airport or City:

Trip Planner

Search our weather history database for the weather conditions in past years. The results will help you decide how hot, cold, wet, or windy it might be!

Date:

Astronomy

Jan. 22, 2013 Rise Set
Actual Time 7:50 AM CST 5:23 PM CST
Civil Twilight 7:19 AM CST 5:54 PM CST
Nautical Twilight 6:44 AM CST 6:29 PM CST
Astronomical Twilight 6:10 AM CST 7:03 PM CST
Moon 1:45 PM CST 4:14 AM CST
Length of Visible Light 10h 35m
Length of Day
9h 32m
Waxing Gibbous, 83% of the Moon is Illuminated
Jan 22
Waxing Gibbous
Jan 26
Full
Feb 3
Last Quarter
Feb 10
New
Feb 17
First Quarter

Hourly Weather History & Observations

Time (CST) Temp. Windchill Dew Point Humidity Pressure Visibility Wind Dir Wind Speed Gust Speed Precip Events Conditions
12:16 AM 3.2 °F -7.8 °F -4.0 °F 72% 30.30 in 10.0 mi NW 5.8 mph - N/A   Scattered Clouds
12:36 AM 3.2 °F -4.2 °F -4.0 °F 72% 30.29 in 10.0 mi West 3.5 mph - N/A   Scattered Clouds
12:56 AM 3.2 °F -4.2 °F -4.0 °F 72% 30.30 in 10.0 mi West 3.5 mph - N/A   Mostly Cloudy
1:15 AM 3.2 °F -6.2 °F -4.0 °F 72% 30.30 in 10.0 mi NW 4.6 mph - N/A   Mostly Cloudy
1:36 AM 5.0 °F -5.6 °F -4.0 °F 66% 30.30 in 10.0 mi NNW 5.8 mph - N/A   Scattered Clouds
1:55 AM 5.0 °F -5.6 °F -4.0 °F 66% 30.30 in 10.0 mi North 5.8 mph - N/A   Clear
2:16 AM 5.0 °F -5.6 °F -4.0 °F 66% 30.30 in 10.0 mi North 5.8 mph - N/A   Clear
2:36 AM 5.0 °F - -4.0 °F 66% 30.30 in 10.0 mi Calm Calm - N/A   Clear
2:55 AM 5.0 °F -2.1 °F -4.0 °F 66% 30.31 in 10.0 mi NNW 3.5 mph - N/A   Clear
3:16 AM 5.0 °F -2.1 °F -4.0 °F 66% 30.31 in 10.0 mi WNW 3.5 mph - N/A   Clear
3:36 AM 5.0 °F - -4.0 °F 66% 30.31 in 10.0 mi Calm Calm - N/A   Scattered Clouds
3:55 AM 3.2 °F - -4.0 °F 72% 30.30 in 10.0 mi Calm Calm - N/A   Clear
4:16 AM 3.2 °F - -4.0 °F 72% 30.30 in 10.0 mi Calm Calm - N/A   Clear
4:36 AM 1.4 °F - -4.0 °F 78% 30.31 in 10.0 mi Calm Calm - N/A   Clear
4:56 AM -0.4 °F - -5.8 °F 78% 30.30 in 10.0 mi Calm Calm - N/A   Clear
5:16 AM -0.4 °F - -5.8 °F 78% 30.30 in 10.0 mi Calm Calm - N/A   Clear
5:36 AM 1.4 °F - -4.0 °F 78% 30.30 in 10.0 mi Calm Calm - N/A   Scattered Clouds
5:56 AM 1.4 °F - -4.0 °F 78% 30.29 in 10.0 mi Calm Calm - N/A   Scattered Clouds
6:16 AM 1.4 °F - -4.0 °F 78% 30.31 in 10.0 mi Calm Calm - N/A   Clear
6:56 AM 3.2 °F - -2.2 °F 78% 30.31 in 10.0 mi Calm Calm - N/A   Clear
7:16 AM 3.2 °F - -4.0 °F 72% 30.31 in 10.0 mi Calm Calm - N/A   Clear
7:35 AM 3.2 °F - -2.2 °F 78% 30.31 in 10.0 mi Calm Calm - N/A   Scattered Clouds
7:56 AM 5.0 °F - -2.2 °F 72% 30.31 in 10.0 mi Calm Calm - N/A   Scattered Clouds
8:16 AM 5.0 °F - -4.0 °F 66% 30.30 in 10.0 mi Calm Calm - N/A   Mostly Cloudy
8:35 AM 5.0 °F - -4.0 °F 66% 30.31 in 10.0 mi Calm Calm - N/A   Overcast
8:56 AM 5.0 °F -2.1 °F -4.0 °F 66% 30.31 in 10.0 mi WSW 3.5 mph - N/A   Mostly Cloudy
9:16 AM 5.0 °F -2.1 °F -4.0 °F 66% 30.31 in 10.0 mi WSW 3.5 mph - N/A   Scattered Clouds
9:35 AM 6.8 °F -2.0 °F -4.0 °F 61% 30.32 in 10.0 mi WSW 4.6 mph - N/A   Clear
9:56 AM 6.8 °F - -2.2 °F 67% 30.32 in 10.0 mi Calm Calm - N/A   Clear
10:16 AM 6.8 °F - -4.0 °F 61% 30.33 in 10.0 mi Calm Calm - N/A   Clear
10:36 AM 8.6 °F - -2.2 °F 62% 30.33 in 10.0 mi Calm Calm - N/A   Scattered Clouds
10:56 AM 8.6 °F 2.0 °F -2.2 °F 62% 30.33 in 10.0 mi SW 3.5 mph - N/A   Scattered Clouds
11:16 AM 8.6 °F 0.1 °F -0.4 °F 67% 30.33 in 10.0 mi South 4.6 mph - N/A   Clear
11:36 AM 10.4 °F 0.8 °F -2.2 °F 57% 30.33 in 10.0 mi SW 5.8 mph - N/A   Clear
11:56 AM 10.4 °F -0.4 °F -0.4 °F 62% 30.32 in 10.0 mi SW 6.9 mph - N/A   Clear
12:16 PM 10.4 °F 0.8 °F -0.4 °F 62% 30.31 in 10.0 mi SW 5.8 mph - N/A   Clear
12:36 PM 12.2 °F 0.7 °F -0.4 °F 57% 30.30 in 10.0 mi SW 8.1 mph - N/A   Scattered Clouds
12:56 PM 12.2 °F 0.7 °F -0.4 °F 57% 30.28 in 10.0 mi SW 8.1 mph - N/A   Overcast
1:15 PM 12.2 °F 1.7 °F -0.4 °F 57% 30.28 in 10.0 mi WSW 6.9 mph - N/A   Overcast
1:36 PM 12.2 °F 1.7 °F 1.4 °F 62% 30.26 in 10.0 mi SW 6.9 mph - N/A   Overcast
1:56 PM 12.2 °F 2.9 °F 1.4 °F 62% 30.25 in 10.0 mi SW 5.8 mph - N/A   Overcast
2:15 PM 14.0 °F 2.9 °F 1.4 °F 57% 30.25 in 10.0 mi SSW 8.1 mph - N/A   Overcast
2:36 PM 14.0 °F 2.9 °F 1.4 °F 57% 30.25 in 10.0 mi SW 8.1 mph - N/A   Overcast
2:56 PM 14.0 °F 5.1 °F 3.2 °F 62% 30.24 in 10.0 mi SW 5.8 mph - N/A   Overcast
3:15 PM 14.0 °F 2.9 °F 1.4 °F 57% 30.24 in 10.0 mi SW 8.1 mph - N/A   Overcast
3:36 PM 14.0 °F 3.9 °F 3.2 °F 62% 30.24 in 10.0 mi SSW 6.9 mph - N/A   Overcast
3:56 PM 14.0 °F 5.1 °F 3.2 °F 62% 30.24 in 7.0 mi SSW 5.8 mph - N/A Snow Light Snow
4:15 PM 14.0 °F 3.9 °F 1.4 °F 57% 30.24 in 10.0 mi SSW 6.9 mph - N/A   Overcast
4:36 PM 12.2 °F 2.9 °F 3.2 °F 67% 30.23 in 10.0 mi SSW 5.8 mph - N/A   Overcast
4:56 PM 12.2 °F 0.7 °F 3.2 °F 67% 30.23 in 10.0 mi SSW 8.1 mph - N/A   Overcast
5:16 PM 12.2 °F 1.7 °F 3.2 °F 67% 30.24 in 10.0 mi SSW 6.9 mph - N/A Snow Light Snow
5:36 PM 12.2 °F 2.9 °F 3.2 °F 67% 30.23 in 10.0 mi South 5.8 mph - N/A   Overcast
5:56 PM 12.2 °F 4.3 °F 5.0 °F 73% 30.23 in 10.0 mi South 4.6 mph - N/A   Overcast
6:16 PM 12.2 °F 0.7 °F 5.0 °F 73% 30.22 in 10.0 mi South 8.1 mph - N/A   Overcast
6:36 PM 14.0 °F 3.9 °F 5.0 °F 67% 30.22 in 10.0 mi South 6.9 mph - N/A   Overcast
6:56 PM 14.0 °F 2.9 °F 6.8 °F 73% 30.21 in 10.0 mi South 8.1 mph - N/A Snow Light Snow
7:16 PM 14.0 °F 2.9 °F 6.8 °F 73% 30.22 in 10.0 mi SSW 8.1 mph - N/A   Overcast
7:36 PM 14.0 °F 3.9 °F 8.6 °F 79% 30.22 in 10.0 mi South 6.9 mph - N/A Snow Light Snow
7:56 PM 14.0 °F 2.9 °F 8.6 °F 79% 30.21 in 10.0 mi South 8.1 mph - N/A Snow Light Snow
8:16 PM 14.0 °F 2.0 °F 8.6 °F 79% 30.19 in 7.0 mi South 9.2 mph - N/A   Overcast
8:35 PM 14.0 °F 3.9 °F 8.6 °F 79% 30.19 in 7.0 mi South 6.9 mph - N/A   Overcast
8:56 PM 14.0 °F 2.0 °F 8.6 °F 79% 30.19 in 7.0 mi South 9.2 mph - N/A   Overcast
9:15 PM 14.0 °F 1.2 °F 8.6 °F 79% 30.18 in 7.0 mi South 10.4 mph - N/A   Overcast
9:36 PM 14.0 °F 0.5 °F 10.4 °F 86% 30.18 in 7.0 mi SSW 11.5 mph - N/A   Overcast
9:56 PM 14.0 °F 1.2 °F 10.4 °F 86% 30.18 in 7.0 mi SSW 10.4 mph - N/A   Overcast
10:15 PM 15.8 °F 2.7 °F 10.4 °F 79% 30.18 in 7.0 mi SSW 11.5 mph - N/A   Overcast
10:36 PM 15.8 °F 3.4 °F 10.4 °F 79% 30.17 in 10.0 mi SSW 10.4 mph - N/A   Overcast
10:56 PM 15.8 °F 1.4 °F 10.4 °F 79% 30.17 in 10.0 mi SSW 13.8 mph - N/A   Overcast
11:16 PM 15.8 °F 1.4 °F 10.4 °F 79% 30.17 in 10.0 mi SSW 13.8 mph - N/A   Overcast
11:36 PM 15.8 °F 2.1 °F 10.4 °F 79% 30.17 in 10.0 mi SSW 12.7 mph - N/A   Overcast
11:56 PM 15.8 °F 3.4 °F 10.4 °F 79% 30.15 in 10.0 mi SSW 10.4 mph - N/A   Overcast